Date,TemperatureHighF,TemperatureAvgF,TemperatureLowF,DewpointHighF,DewpointAvgF,DewpointLowF,HumidityHigh,HumidityAvg,HumidityLow,PressureMaxIn,PressureMinIn,WindSpeedMaxMPH,WindSpeedAvgMPH,GustSpeedMaxMPH,PrecipitationSumIn
2013-3-1,76,58,40,-100,-100,-100,0,0,100,0.00,40.00,0,-999,0,0.00
2013-3-2,80,63,46,-100,-100,-100,0,0,100,0.00,40.00,0,-999,0,0.00
2013-3-3,71,65,57,-100,-100,-100,0,0,100,0.00,40.00,0,-999,0,0.00
2013-3-4,73,63,51,-100,-100,-100,0,0,100,0.00,40.00,0,-999,0,0.00
2013-3-5,74,59,48,-100,-100,-100,0,0,100,0.00,40.00,0,-999,0,0.00
2013-3-6,60,53,47,-100,-100,-100,0,0,100,0.00,40.00,0,-999,0,0.00
2013-3-7,58,51,47,-100,-100,-100,0,0,100,0.00,40.00,0,-999,0,0.00
2013-3-8,52,46,40,-100,-100,-100,0,0,100,0.00,40.00,0,-999,0,0.00
2013-3-9,62,51,41,-100,-100,-100,0,0,100,0.00,40.00,0,-999,0,0.00
2013-3-10,69,58,38,-100,-100,-100,0,0,100,0.00,40.00,0,-999,0,0.00
2013-3-11,75,58,43,-100,-100,-100,0,0,100,0.00,40.00,0,-999,0,0.00
2013-3-12,80,64,49,-100,-100,-100,0,0,100,0.00,40.00,0,-999,0,0.00
2013-3-13,86,68,51,-100,-100,-100,0,0,100,0.00,40.00,0,-999,0,0.00
2013-3-14,90,76,57,-100,-100,-100,0,0,100,0.00,40.00,0,-999,0,0.00
2013-3-15,91,75,62,-100,-100,-100,0,0,100,0.00,40.00,0,-999,0,0.00
2013-3-16,84,69,58,-100,-100,-100,0,0,100,0.00,40.00,0,-999,0,0.00
2013-3-17,82,68,58,-100,-100,-100,0,0,100,0.00,40.00,0,-999,0,0.00
2013-3-18,80,68,53,-100,-100,-100,0,0,100,0.00,40.00,0,-999,0,0.00
2013-3-19,83,69,58,-100,-100,-100,0,0,100,0.00,40.00,0,-999,0,0.00
2013-3-20,77,66,58,-100,-100,-100,0,0,100,0.00,40.00,0,-999,0,0.00
2013-3-21,81,65,55,-100,-100,-100,0,0,100,0.00,40.00,0,-999,0,0.00
2013-3-22,76,62,48,-100,-100,-100,0,0,100,0.00,40.00,0,-999,0,0.00
2013-3-23,76,59,44,-100,-100,-100,0,0,100,0.00,40.00,0,-999,0,0.00
2013-3-24,76,63,46,-100,-100,-100,0,0,100,0.00,40.00,0,-999,0,0.00
2013-3-25,83,68,52,-100,-100,-100,0,0,100,0.00,40.00,0,-999,0,0.00
2013-3-26,82,70,56,-100,-100,-100,0,0,100,0.00,40.00,0,-999,0,0.00
2013-3-27,76,71,61,-100,-100,-100,0,0,100,0.00,40.00,0,-999,0,0.00
2013-3-28,80,66,54,-100,-100,-100,0,0,100,0.00,40.00,0,-999,0,0.00
2013-3-29,83,67,53,-100,-100,-100,0,0,100,0.00,40.00,0,-999,0,0.00
2013-3-30,81,72,58,-100,-100,-100,0,0,100,0.00,40.00,0,-999,0,0.00
2013-3-31,68,62,54,-100,-100,-100,0,0,100,0.00,40.00,0,-999,0,0.00